LA8QT Lodingen NO current weather conditions

sailwx.info

Wind from 325 at 4 knots

Air temperature -2.2° C
Dewpoint -7.7° C

Last reported at 2017-Dec-12 18:57 UTC.
Time now 2017-Dec-12 19:59 UTC

Location: N 68°28' E 016°04'.
View on Google Maps.

See reports from other nearby stations

  
Tides and Currents Weather Stations Pressure Air Temp Water Temp Dewpoint Dewpoint Depression Visibility Wind Speed Wind Dir Waves Ship Positions
date/time (UTC)wind fromknots sea level pressurealtimeterstation pressurevisibilityair tempwater tempwave heightnotes
2017-Dec-12 18:57 325 4 -2.2
2017-Dec-12 18:42 331 4 -2.2
2017-Dec-12 18:27 323 4 -2.8
2017-Dec-12 18:12 344 2 -3.3
2017-Dec-12 17:57 343 3 -3.3
2017-Dec-12 17:42 344 2 -3.3
2017-Dec-12 17:27 344 -2.8
2017-Dec-12 17:12 340 0 -3.3
2017-Dec-12 16:57 340 3 -2.8
2017-Dec-12 16:41 344 2 -2.8
2017-Dec-12 16:26 356 2 -1.7
2017-Dec-12 16:11 356 5 -1.7
2017-Dec-12 15:57 336 5 -1.7
2017-Dec-12 15:41 335 6 -1.7
2017-Dec-12 15:26 341 6 -1.7
2017-Dec-12 15:11 346 5 -1.7
2017-Dec-12 14:56 003 4 -1.7
2017-Dec-12 14:41 344 6 -1.7
2017-Dec-12 14:26 332 6 -1.7
2017-Dec-12 14:11 331 6 -1.7
2017-Dec-12 13:56 344 6 -1.7
2017-Dec-12 13:42 339 6 -1.7
2017-Dec-12 13:26 339 6 -1.7
2017-Dec-12 13:11 328 4 -2.2
2017-Dec-12 12:56 338 4 -2.2
2017-Dec-12 12:41 337 4 -2.2
2017-Dec-12 12:26 329 3 -2.2
2017-Dec-12 12:11 346 3 -1.7
2017-Dec-12 11:56 344 4 -1.7
2017-Dec-12 11:41 329 2 -2.2
2017-Dec-12 11:26 329 4 -1.7
2017-Dec-12 11:11 353 4 -2.2
2017-Dec-12 10:56 324 5 -1.7
2017-Dec-12 10:41 327 6 -1.7
2017-Dec-12 10:27 333 4 -1.7
2017-Dec-12 10:11 328 6 -1.7
2017-Dec-12 09:57 327 5 -2.2
2017-Dec-12 09:41 320 4 -2.2
2017-Dec-12 09:26 334 3 -1.7
2017-Dec-12 09:11 314 4 -2.2
2017-Dec-12 08:56 309 2 -2.8
2017-Dec-12 08:41 308 4 -2.8
2017-Dec-12 08:26 317 4 -2.8
2017-Dec-12 08:11 317 3 -2.2
2017-Dec-12 07:56 354 0 -1.7
2017-Dec-12 07:41 354 -1.7
2017-Dec-12 07:26 043 -0.6
2017-Dec-12 07:11 098 5 0.6
2017-Dec-12 06:56 084 5 0.6
2017-Dec-12 06:41 129 7 0.6
2017-Dec-12 06:26 110 6 0.6
2017-Dec-12 06:11 115 9 0.6
2017-Dec-12 05:56 129 10 0.6
2017-Dec-12 05:41 123 9 1.1
2017-Dec-12 05:26 125 10 1.1
2017-Dec-12 05:11 129 11 1.1
2017-Dec-12 04:56 140 12 1.1
2017-Dec-12 04:41 129 12 1.1
2017-Dec-12 04:26 138 8 1.1
2017-Dec-12 04:11 140 11 1.1
2017-Dec-12 03:56 134 13 1.1
2017-Dec-12 03:41 135 11 1.1
2017-Dec-12 03:26 131 14 1.1
2017-Dec-12 03:11 135 13 1.1
2017-Dec-12 02:56 142 11 1.1
2017-Dec-12 02:41 135 10 1.1
2017-Dec-12 02:26 139 10 1.1
2017-Dec-12 02:11 140 10 1.1
2017-Dec-12 01:56 131 8 1.1
2017-Dec-12 01:41 135 8 1.1
2017-Dec-12 01:26 131 11 1.1
2017-Dec-12 01:11 134 12 1.1
2017-Dec-12 00:56 135 13 1.1
2017-Dec-12 00:40 127 13 1.7
2017-Dec-12 00:25 135 13 1.7
2017-Dec-12 00:11 119 13 1.7
2017-Dec-11 23:55 133 13 1.7
2017-Dec-11 23:40 131 14 1.7
2017-Dec-11 23:25 135 13 1.7
2017-Dec-11 23:10 122 14 1.7
2017-Dec-11 22:56 129 13 1.7
2017-Dec-11 22:40 138 13 1.7
2017-Dec-11 22:25 129 14 1.7
2017-Dec-11 22:10 131 13 2.2
2017-Dec-11 21:55 140 14 2.2
2017-Dec-11 21:41 136 14 2.2
2017-Dec-11 21:25 133 14 2.2
2017-Dec-11 21:10 117 13 2.2
2017-Dec-11 20:55 130 14 2.2
2017-Dec-11 20:40 141 13 2.2
2017-Dec-11 20:25 142 13 2.2
2017-Dec-11 20:10 134 12 2.2
2017-Dec-11 19:55 137 13 2.2
2017-Dec-11 19:40 154 14 2.2
2017-Dec-11 19:25 139 13 2.2
2017-Dec-11 19:10 133 13 2.2
2017-Dec-11 18:55 142 13 2.2
2017-Dec-11 18:40 156 13 2.2
2017-Dec-11 17:55 129 6 2.2
2017-Dec-11 17:40 137 7 2.2
2017-Dec-11 17:26 133 7 2.2
2017-Dec-11 17:10 134 6 2.2
2017-Dec-11 16:55 079 2 1.7
2017-Dec-11 16:40 104 0 0.6
2017-Dec-11 16:25 330 0.6
2017-Dec-11 16:10 319 2 -0.6
2017-Dec-11 15:55 335 1 -0.0
2017-Dec-11 15:40 335 -0.0
2017-Dec-11 15:25 335 -0.0
2017-Dec-11 15:10 335 -0.6
2017-Dec-11 14:55 335 0 -0.6
2017-Dec-11 14:40 335 1 -1.1
2017-Dec-11 14:25 335 0 -1.1
2017-Dec-11 14:10 335 1 -1.7
2017-Dec-11 13:55 335 0 -1.7
2017-Dec-11 13:40 335 0 -1.7
2017-Dec-11 13:25 335 2 -1.7
2017-Dec-11 13:10 335 3 -2.2
2017-Dec-11 12:55 335 2 -1.7
2017-Dec-11 12:40 335 -1.1
2017-Dec-11 12:25 335 2 -1.1
2017-Dec-11 12:10 335 0 -1.7
2017-Dec-11 11:55 335 2 -1.7
2017-Dec-11 11:40 335 0 -1.7
2017-Dec-11 11:25 335 2 -1.7
2017-Dec-11 11:10 335 3 -0.6
2017-Dec-11 10:55 335 1 -1.1
2017-Dec-11 10:40 335 2 -1.7
2017-Dec-11 10:25 335 1 -1.1
2017-Dec-11 10:10 335 2 -1.1
2017-Dec-11 09:55 335 3 -1.1
2017-Dec-11 09:40 335 3 -1.7
2017-Dec-11 09:25 335 2 -1.1
2017-Dec-11 09:10 335 2 -1.1
2017-Dec-11 08:55 335 -0.6
2017-Dec-11 08:40 335 3 -0.6
2017-Dec-11 08:25 335 0 -0.6
2017-Dec-11 08:10 335 2 -0.6
2017-Dec-11 07:55 335 1 -0.6
2017-Dec-11 07:40 323 3 -0.0
2017-Dec-11 07:24 323 2 -0.6
2017-Dec-11 07:10 323 -0.0
2017-Dec-11 06:55 323 1 -0.0
2017-Dec-11 06:39 323 2 -0.0
2017-Dec-11 06:24 323 2 -0.0
2017-Dec-11 06:09 323 4 0.6
2017-Dec-11 05:54 326 4 1.1
2017-Dec-11 05:39 324 5 1.1
2017-Dec-11 05:24 339 4 1.1
2017-Dec-11 05:09 347 4 1.7
2017-Dec-11 04:54 331 5 1.7
2017-Dec-11 04:39 341 6 1.1
2017-Dec-11 04:24 311 7 1.1
2017-Dec-11 04:09 002 3 1.7
2017-Dec-11 03:54 350 2 1.1
2017-Dec-11 03:39 353 1.7
2017-Dec-11 03:24 355 4 1.7
2017-Dec-11 03:09 344 5 1.7
2017-Dec-11 02:54 320 5 1.7
2017-Dec-11 02:39 329 5 1.7
2017-Dec-11 02:24 312 6 1.7
2017-Dec-11 02:09 326 6 1.7
2017-Dec-11 01:54 023 2.8
2017-Dec-11 01:39 314 6 2.2
2017-Dec-11 01:24 316 8 2.2
2017-Dec-11 01:09 325 7 2.2
2017-Dec-11 00:54 319 10 2.2
2017-Dec-11 00:39 319 4 2.2
2017-Dec-11 00:24 319 6 2.2
2017-Dec-11 00:09 353 1 2.8
2017-Dec-10 23:54 348 3 2.8
2017-Dec-10 23:39 013 6 4.4
2017-Dec-10 23:24 063 9 4.4
2017-Dec-10 23:09 072 13 4.4
2017-Dec-10 22:54 058 13 4.4
2017-Dec-10 22:39 053 8 4.4
2017-Dec-10 22:24 060 2 3.3
2017-Dec-10 22:09 021 0 3.3
2017-Dec-10 21:54 049 6 4.4
2017-Dec-10 21:39 054 4 3.9
2017-Dec-10 21:24 002 2 3.9
2017-Dec-10 21:09 059 5 4.4
2017-Dec-10 20:54 007 1 3.3
2017-Dec-10 20:39 325 5 3.9
2017-Dec-10 20:24 047 13 5.0
2017-Dec-10 19:54 059 12 5.0
2017-Dec-10 19:39 029 1 2.8
2017-Dec-10 19:24 348 0 2.2
2017-Dec-10 19:09 347 0 2.8